Langdon, ND

3:28 PM CDT on August 27, 2016 (GMT -0500)
Langdon

Weather History for KD55 - October, 2012

Change the Weather History Date:

Friday, October 12, 2012

  Actual Average (KDVL) Record (KDVL)
Temperature  
Mean Temperature 36 °F -  
Max Temperature 48 °F 55 °F 80 °F (1956)
Min Temperature 23 °F 34 °F 21 °F (1959)
Degree Days  
Heating Degree Days 30    
Moisture  
Dew Point 24 °F    
Average Humidity 65    
Maximum Humidity 86    
Minimum Humidity 37    
Precipitation  
Precipitation 0.00 in - - ()
Sea Level Pressure  
Sea Level Pressure 30.03 in    
Wind  
Wind Speed 16 mph (South)    
Max Wind Speed 32 mph    
Max Gust Speed 40 mph    
Visibility 10 miles    
Events      
Averages and records for this station are not official NWS values.
T = Trace of Precipitation, MM = Missing Value Source: NWS Daily Summary

Daily Weather History Graph

Daily Weather History Graph

Search for Another Location

Airport or City:

Trip Planner

Search our weather history database for the weather conditions in past years. The results will help you decide how hot, cold, wet, or windy it might be!

Date:

Astronomy

Oct. 12, 2012 Rise Set
Actual Time 7:50 AM CDT 6:48 PM CDT
Civil Twilight 7:18 AM CDT 7:20 PM CDT
Nautical Twilight 6:41 AM CDT 7:56 PM CDT
Astronomical Twilight 6:05 AM CDT 8:33 PM CDT
Moon 4:21 AM CDT (10/12) 5:09 PM CDT (10/12)
Length of Visible Light 12h 02m
Length of Day
10h 58m
Waning Crescent, 10% of the Moon is Illuminated
Oct 12
Waning Crescent
Oct 15
New
Oct 21
First Quarter
Oct 29
Full
Nov 6
Last Quarter

Hourly Weather History & Observations

Time (CDT) Temp. Windchill Dew Point Humidity Pressure Visibility Wind Dir Wind Speed Gust Speed Precip Events Conditions
12:15 AM 23.0 °F 12.4 °F 17.6 °F 80% 30.31 in 10.0 mi South 10.4 mph - N/A   Clear
12:35 AM 24.8 °F 14.6 °F 19.4 °F 80% 30.31 in 10.0 mi South 10.4 mph - N/A   Clear
1:15 AM 24.8 °F 14.6 °F 21.2 °F 86% 30.30 in 10.0 mi South 10.4 mph - N/A   Clear
1:35 AM 26.6 °F 16.8 °F 21.2 °F 80% 30.30 in 10.0 mi South 10.4 mph - N/A   Clear
1:55 AM 24.8 °F 15.3 °F 21.2 °F 86% 30.30 in 10.0 mi South 9.2 mph - N/A   Clear
2:15 AM 26.6 °F 16.2 °F 21.2 °F 80% 30.30 in 10.0 mi South 11.5 mph - N/A   Clear
2:35 AM 26.6 °F 16.2 °F 23.0 °F 86% 30.29 in 10.0 mi South 11.5 mph - N/A   Clear
2:55 AM 28.4 °F 18.5 °F 23.0 °F 80% 30.28 in 10.0 mi South 11.5 mph - N/A   Clear
3:15 AM 26.6 °F 15.7 °F 23.0 °F 86% 30.28 in 10.0 mi South 12.7 mph - N/A   Clear
3:35 AM 26.6 °F 16.2 °F 23.0 °F 86% 30.26 in 10.0 mi South 11.5 mph - N/A   Clear
3:55 AM 26.6 °F 16.2 °F 23.0 °F 86% 30.25 in 10.0 mi South 11.5 mph - N/A   Clear
4:15 AM 26.6 °F 16.8 °F 23.0 °F 86% 30.25 in 10.0 mi South 10.4 mph - N/A   Clear
4:35 AM 26.6 °F 16.2 °F 23.0 °F 86% 30.24 in 10.0 mi South 11.5 mph - N/A   Clear
4:55 AM 26.6 °F 15.7 °F 23.0 °F 86% 30.25 in 10.0 mi South 12.7 mph - N/A   Clear
5:15 AM 26.6 °F 15.7 °F 23.0 °F 86% 30.24 in 10.0 mi South 12.7 mph - N/A   Clear
5:55 AM 26.6 °F 15.2 °F 23.0 °F 86% 30.23 in 10.0 mi South 13.8 mph - N/A   Clear
6:15 AM 26.6 °F 14.7 °F 23.0 °F 86% 30.22 in 10.0 mi South 15.0 mph - N/A   Clear
6:35 AM 26.6 °F 15.2 °F 23.0 °F 86% 30.22 in 10.0 mi South 13.8 mph - N/A   Clear
6:55 AM 26.6 °F 14.3 °F 23.0 °F 86% 30.21 in 10.0 mi South 16.1 mph - N/A   Clear
7:15 AM 26.6 °F 13.1 °F 23.0 °F 86% 30.20 in 10.0 mi South 19.6 mph - N/A   Mostly Cloudy
7:35 AM 28.4 °F 16.2 °F 23.0 °F 80% 30.18 in 10.0 mi South 17.3 mph 24.2 mph N/A   Overcast
7:55 AM 30.2 °F 17.4 °F 24.8 °F 80% 30.18 in 10.0 mi South 20.7 mph 25.3 mph N/A   Overcast
8:15 AM 30.2 °F 17.8 °F 24.8 °F 80% 30.17 in 10.0 mi South 19.6 mph - N/A   Overcast
8:35 AM 30.2 °F 17.8 °F 24.8 °F 80% 30.16 in 10.0 mi South 19.6 mph 24.2 mph N/A   Overcast
8:55 AM 30.2 °F 18.1 °F 24.8 °F 80% 30.15 in 10.0 mi South 18.4 mph 23.0 mph N/A   Overcast
9:15 AM 32.0 °F 20.5 °F 24.8 °F 75% 30.14 in 10.0 mi South 18.4 mph 25.3 mph N/A   Overcast
9:35 AM 32.0 °F 20.5 °F 26.6 °F 80% 30.14 in 10.0 mi South 18.4 mph - N/A   Overcast
9:55 AM 32.0 °F 20.5 °F 26.6 °F 80% 30.13 in 10.0 mi South 18.4 mph 25.3 mph N/A   Overcast
10:15 AM 32.0 °F 20.1 °F 26.6 °F 80% 30.11 in 10.0 mi South 19.6 mph 24.2 mph N/A   Overcast
10:35 AM 32.0 °F 20.5 °F 26.6 °F 80% 30.11 in 10.0 mi South 18.4 mph 25.3 mph N/A   Overcast
11:15 AM 35.6 °F 23.4 °F 26.6 °F 70% 30.07 in 10.0 mi South 25.3 mph 28.8 mph N/A   Overcast
11:35 AM 37.4 °F 26.4 °F 26.6 °F 65% 30.06 in 10.0 mi South 23.0 mph - N/A   Overcast
12:15 PM 39.2 °F 28.3 °F 26.6 °F 61% 30.04 in 10.0 mi South 25.3 mph 34.5 mph N/A   Overcast
12:35 PM 41.0 °F 30.0 °F 26.6 °F 57% 30.02 in 10.0 mi South 28.8 mph 34.5 mph N/A   Overcast
12:55 PM 44.6 °F 35.3 °F 24.8 °F 46% 30.01 in 10.0 mi South 26.5 mph 38.0 mph N/A   Partly Cloudy
1:35 PM 46.4 °F 37.4 °F 26.6 °F 46% 29.98 in 10.0 mi South 28.8 mph 39.1 mph N/A   Clear
1:55 PM 46.4 °F 37.5 °F 26.6 °F 46% 29.96 in 10.0 mi SSW 27.6 mph 36.8 mph N/A   Clear
2:15 PM 46.4 °F 37.7 °F 26.6 °F 46% 29.95 in 10.0 mi South 26.5 mph 35.7 mph N/A   Clear
2:35 PM 46.4 °F 37.4 °F 26.6 °F 46% 29.93 in 10.0 mi South 28.8 mph 34.5 mph N/A   Clear
2:55 PM 46.4 °F 37.2 °F 26.6 °F 46% 29.91 in 10.0 mi South 29.9 mph 39.1 mph N/A   Clear
3:15 PM 46.4 °F 37.4 °F 26.6 °F 46% 29.89 in 10.0 mi South 28.8 mph 40.3 mph N/A   Clear
3:35 PM 46.4 °F 37.4 °F 26.6 °F 46% 29.87 in 10.0 mi South 28.8 mph 40.3 mph N/A   Clear
3:55 PM 48.2 °F - 24.8 °F 40% 29.87 in 10.0 mi South 31.1 mph 40.3 mph N/A   Clear
4:15 PM 48.2 °F - 24.8 °F 40% 29.86 in 10.0 mi South 32.2 mph 39.1 mph N/A   Clear
4:35 PM 48.2 °F - 24.8 °F 40% 29.86 in 10.0 mi South 29.9 mph 40.3 mph N/A   Clear
5:15 PM 48.2 °F - 23.0 °F 37% 29.85 in 10.0 mi South 27.6 mph 35.7 mph N/A   Clear
5:55 PM 46.4 °F 38.3 °F 23.0 °F 40% 29.83 in 10.0 mi South 23.0 mph 27.6 mph N/A   Clear
6:15 PM 46.4 °F 38.7 °F 23.0 °F 40% 29.82 in 10.0 mi South 20.7 mph 26.5 mph N/A   Clear
6:35 PM 44.6 °F 36.9 °F 23.0 °F 43% 29.82 in 10.0 mi South 18.4 mph 25.3 mph N/A   Clear
6:55 PM 42.8 °F 35.1 °F 23.0 °F 46% 29.81 in 10.0 mi South 16.1 mph - N/A   Clear
7:15 PM 42.8 °F 35.1 °F 23.0 °F 46% 29.81 in 10.0 mi South 16.1 mph - N/A   Clear
7:35 PM 41.0 °F 32.5 °F 23.0 °F 49% 29.80 in 10.0 mi South 17.3 mph 21.9 mph N/A   Clear
7:55 PM 41.0 °F 32.5 °F 23.0 °F 49% 29.79 in 10.0 mi South 17.3 mph 24.2 mph N/A   Clear
8:15 PM 41.0 °F 32.2 °F 23.0 °F 49% 29.77 in 10.0 mi South 18.4 mph - N/A   Clear
8:35 PM 41.0 °F 32.2 °F 23.0 °F 49% 29.76 in 10.0 mi South 18.4 mph - N/A   Clear
9:15 PM 39.2 °F 31.2 °F 23.0 °F 52% 29.75 in 10.0 mi South 13.8 mph 19.6 mph N/A   Clear
9:35 PM 39.2 °F 31.6 °F 23.0 °F 52% 29.74 in 10.0 mi South 12.7 mph - N/A   Clear
9:55 PM 39.2 °F 30.8 °F 23.0 °F 52% 29.73 in 10.0 mi South 15.0 mph - N/A   Clear
10:15 PM 39.2 °F 31.6 °F 23.0 °F 52% 29.72 in 10.0 mi South 12.7 mph - N/A   Clear
10:55 PM 37.4 °F 28.9 °F 23.0 °F 56% 29.72 in 10.0 mi South 13.8 mph - N/A   Clear
11:35 PM 37.4 °F 29.3 °F 23.0 °F 56% 29.71 in 10.0 mi South 12.7 mph - N/A   Clear
11:55 PM 37.4 °F 29.3 °F 23.0 °F 56% 29.71 in 10.0 mi South 12.7 mph - N/A   Clear